This is the latest recevied weather packets stored in our database for station/object KD0OXW. If no packets are shown the sender has not sent any weather packets the latest 10 day(s).
| Time | Temp. | Humidity | Pressure | Rain* | Wind** | Luminosity | Snow |
|---|---|---|---|---|---|---|---|
| 1778180582 | 10° C | 34% | 1011.1 hPa | 0 mm | - | - | - |
| 1778180282 | 9.44° C | 40% | 1011.1 hPa | 0 mm | - | - | - |
| 1778179982 | 8.89° C | 38% | 1011.2 hPa | 0 mm | - | - | - |
| 1778179682 | 8.89° C | 37% | 1011.4 hPa | 0 mm | - | - | - |
| 1778179382 | 8.89° C | 37% | 1011.5 hPa | 0 mm | - | - | - |
| 1778179082 | 8.89° C | 34% | 1011.4 hPa | 0 mm | - | - | - |
| 1778178782 | 9.44° C | 36% | 1011.5 hPa | 0 mm | - | - | - |
| 1778178482 | 8.89° C | 36% | 1011.4 hPa | 0 mm | - | - | - |
| 1778178182 | 8.89° C | 38% | 1011.5 hPa | 0 mm | - | - | - |
| 1778177882 | 8.89° C | 38% | 1011.7 hPa | 0 mm | - | - | - |
| 1778177582 | 8.33° C | 39% | 1011.7 hPa | 0 mm | - | - | - |
| 1778177282 | 8.33° C | 38% | 1011.7 hPa | 0 mm | - | - | - |
| 1778176982 | 8.33° C | 40% | 1011.7 hPa | 0 mm | - | - | - |
| 1778176682 | 8.33° C | 38% | 1011.7 hPa | 0 mm | - | - | - |
| 1778176382 | 8.33° C | 38% | 1011.8 hPa | 0 mm | - | - | - |
| 1778176082 | 8.33° C | 37% | 1011.8 hPa | 0 mm | - | - | - |
| 1778175782 | 8.33° C | 38% | 1011.8 hPa | 0 mm | - | - | - |
| 1778175482 | 8.33° C | 40% | 1012 hPa | 0 mm | - | - | - |
| 1778175182 | 8.33° C | 42% | 1012.2 hPa | 0 mm | - | - | - |
| 1778174882 | 7.78° C | 40% | 1012.2 hPa | 0 mm | - | - | - |
| 1778174582 | 7.78° C | 42% | 1012.3 hPa | 0 mm | - | - | - |
| 1778174282 | 7.78° C | 43% | 1012.3 hPa | 0 mm | - | - | - |
| 1778173982 | 7.22° C | 41% | 1012.4 hPa | 0 mm | - | - | - |
| 1778173682 | 7.22° C | 42% | 1012.4 hPa | 0 mm | - | - | - |
| 1778173382 | 7.22° C | 42% | 1012.5 hPa | 0 mm | - | - | - |
* Rain latest hour (hover to see other rain measurements)
** Current wind speed in m/s (hover to see current wind gust speed)